Flag for Germany Weather past 2 weeks in Neu-Isenburg, Hesse, Germany

Now
53 °F

Drizzle. Low clouds.


Feels Like: 51 °F
Forecast: 41 / 53 °F
Wind: 6 mph from Southwest

Location: Frankfurt / M-Flughafen

Current Time: Dec 18, 2014 at 5:38:23 PM

Latest Report: Dec 18, 2014 at 5:00 PM


Visibility: 6 mi

Pressure: 29.95 "Hg

Humidity: 97%

Dew point: 52 °F

Location of Neu-IsenburgLocation

Historic Weather in Neu-Isenburg — Graph

°F

Neu-Isenburg temperature yesterday

Maximum temperature yesterday: 44 °F (at 11:00 PM)
Minimum temperature yesterday: 32 °F (at 4:00 AM)
Average temperature yesterday: 38 °F

Past Weeks' High & Low Weather Summary

 TemperatureHumidityPressure
High51 °F (Dec 12, 9:00 PM)100% (Dec 6, 5:00 AM)30.46 "Hg (Dec 6, 5:00 AM)
Low29 °F (Dec 8, 11:00 PM)67% (Dec 12, 8:00 PM)29.62 "Hg (Dec 12, 6:00 PM)
Average39 °F91%30.04 "Hg
* Reported Dec 3 3:00 PM — Dec 18 3:00 PM, Neu-Isenburg, Weather by CustomWeather, © 2014

Note: Actual official high and low records may vary slightly from our data, if they occured in-between our weather recording intervals... More about our weather records

Advertising

Neu-Isenburg weather history for previous 24 hours

 ConditionsComfort  
Time TempWeatherWind HumidityBarometerVisibility
3:00 PM
Dec 18
51 °FLow clouds.7 mph98%29.93 "Hg7 mi
2:00 PM50 °FDrizzle. Low clouds.6 mph98%29.93 "Hg6 mi
1:00 PM49 °FDrizzle. Low clouds.6 mph99%29.93 "Hg2 mi
12:00 PM48 °FDrizzle. Low clouds.6 mph99%29.95 "Hg2 mi
11:00 AM48 °FLow clouds.6 mph97%29.96 "Hg7 mi
9:00 AM47 °FDrizzle. Low clouds.7 mph99%29.95 "Hg3 mi
8:00 AM46 °FDrizzle. Low clouds.6 mph99%29.94 "Hg5 mi
7:00 AM46 °FDrizzle. Low clouds.7 mph98%29.94 "Hg6 mi
6:00 AM46 °FLow clouds.8 mph97%29.93 "Hg6 mi
5:00 AM46 °FLow clouds.6 mph97%29.94 "Hg6 mi
3:00 AM46 °FDrizzle. Low clouds.9 mph97%29.94 "Hg7 mi
2:00 AM45 °FLow clouds.8 mph97%29.94 "Hg9 mi
1:00 AM45 °FLow clouds.6 mph97%29.92 "Hg9 mi
12:00 AM45 °FDrizzle. Low clouds.8 mph98%29.91 "Hg4 mi
11:00 PM
Dec 17
44 °FLight rain. Low clouds.5 mph98%29.89 "Hg8 mi
9:00 PM43 °FDrizzle. Low clouds.7 mph97%29.85 "Hg8 mi
8:00 PM43 °FDrizzle. Low clouds.7 mph97%29.82 "Hg7 mi
7:00 PM42 °FLow clouds.6 mph98%29.80 "Hg9 mi
6:00 PM41 °FDrizzle. Low clouds.5 mph99%29.78 "Hg3 mi
5:00 PM40 °FDrizzle. Low clouds.7 mph98%29.76 "Hg3 mi
Weather by CustomWeather, © 2014

See weather overviewHow to use our weather pages